Accueil
METAR-TAF:

METAR-TAF

Aéroports :

Wallops Flight Facility

Wallops Island, Virginie, États-Unis

latitude: 37-56-26N, longitude: 075-27-47W, altitude: 12 m

Observation

Le bulletin a été fait il y a 43 minutes, à 18:54 UTC
Vent 6 kt de ouest
Température 10°C
Humidité 50%
Pression 1021 hPa
Visibilité: 16.1 km
Quelques nuages à une hauteur de 12000 ft

METAR: KWAL 161854Z AUTO 28006KT 10SM FEW120 10/00 A3016 RMK AO2 SLP208 T01000000 TSNO

Heure: 14:37 (19:37 UTC)


TAF: absent

Observations et prévisions météorologiques de plus de 4000 aéroports (messages METAR et TAF).

Les stations disponibles sont représentées par des disques jaunes et rouges sur la carte.

Passer la souris dessus pour voir le nom de la station.

Cliquer dessus pour voir les observations et prévisions météorologiques.

Pour changer de carte: cliquez sur les boutons verts avec une croix noire pour zoomer, sur le bouton vert avec un tiret pour effectuer un zoom arrière, ou sur les flèches vertes pour les cartes adjacentes.


METAR-TAF: